Flag for Canada Weather past 2 weeks in Sidney, British Columbia, Canada

Now
55 °F

Partly sunny.


Feels Like: 53 °F
Forecast: 54 / 62 °F
Wind: 8 mph from Southeast

Location: Victoria Int. Airportb. C.

Current Time: May 22, 2015 at 9:55:57 PM

Latest Report: May 22, 2015 at 9:00 PM


Visibility: 30 mi

Pressure: 29.97 "Hg

Humidity: 82%

Dew point: 50 °F

Location of SidneyLocation

Historic Weather in Sidney — Graph

°F

Sidney temperature yesterday

Maximum temperature yesterday: 70 °F (at 4:00 PM)
Minimum temperature yesterday: 48 °F (at 6:00 AM)
Average temperature yesterday: 58 °F

Past Weeks' High & Low Weather Summary

 TemperatureHumidityPressure
High75 °F (May 8, 4:00 PM)100% (May 14, 2:00 AM)30.11 "Hg (May 14, 2:00 AM)
Low45 °F (May 8, 6:00 AM)21% (May 8, 4:00 PM)29.79 "Hg (May 12, 7:00 PM)
Average58 °F75%29.95 "Hg
* Reported May 7 9:00 PM — May 22 9:00 PM, Sidney, Weather by CustomWeather, © 2015

Note: Actual official high and low records may vary slightly from our data, if they occured in-between our weather recording intervals... More about our weather records

Advertising

Sidney weather history for previous 24 hours

 ConditionsComfort  
Time TempWeatherWind HumidityBarometerVisibility
9:00 PM
Fri, May 22
55 °FPartly sunny.8 mph82%29.97 "Hg30 mi
8:00 PM57 °FScattered clouds.5 mph82%29.96 "Hg30 mi
7:00 PM59 °FScattered clouds.15 mph77%29.96 "Hg30 mi
6:00 PM61 °FScattered clouds.13 mph72%29.95 "Hg30 mi
5:00 PM59 °FScattered clouds.8 mph72%29.94 "Hg30 mi
4:00 PM61 °FPartly sunny.12 mph72%29.95 "Hg30 mi
3:00 PM66 °FScattered clouds.7 mph64%29.95 "Hg30 mi
2:00 PM63 °FBroken clouds.7 mph68%29.96 "Hg30 mi
1:00 PM61 °FBroken clouds.7 mph72%29.96 "Hg20 mi
12:00 PM59 °FBroken clouds.7 mph77%29.96 "Hg20 mi
11:00 AM61 °FPartly sunny.8 mph72%29.95 "Hg20 mi
10:00 AM59 °FBroken clouds.8 mph77%29.94 "Hg20 mi
9:00 AM57 °FBroken clouds.2 mph82%29.94 "Hg20 mi
8:00 AM55 °FBroken clouds.No wind82%29.92 "Hg30 mi
7:00 AM52 °FBroken clouds.3 mph94%29.92 "Hg20 mi
6:00 AM52 °FLight rain. Partly cloudy.2 mph94%29.90 "Hg30 mi
5:00 AM52 °FPartly cloudy.3 mph88%29.89 "Hg30 mi
4:00 AM52 °FPassing clouds.2 mph88%29.88 "Hg30 mi
3:00 AM52 °FPartly cloudy.3 mph94%29.87 "Hg30 mi
2:00 AM52 °FPartly cloudy.5 mph94%29.87 "Hg30 mi
1:00 AM52 °FThunderstorms. Passing clouds.5 mph94%29.85 "Hg30 mi
12:00 AM52 °FPassing clouds.2 mph88%29.84 "Hg30 mi
11:00 PM
Thu, May 21
52 °FPassing clouds.7 mph94%29.83 "Hg30 mi
10:00 PM54 °FPassing clouds.2 mph88%29.83 "Hg30 mi
9:00 PM54 °FPartly sunny.5 mph88%29.81 "Hg30 mi
Weather by CustomWeather, © 2015

See weather overviewHow to use our weather pages